Flag for Poland Weather past 2 weeks in Zabrze, Poland

Now
36 °F

Clear.


Feels Like: 30 °F
Forecast: 32 / 42 °F
Wind: 7 mph from Southwest

Location: Katowice Airport

Current Time: Mar 4, 2015 at 8:55:06 PM

Latest Report: Mar 4, 2015 at 8:30 PM


Visibility: 5 mi

Pressure: 30.21 "Hg

Humidity: 60%

Dew point: 23 °F

Location of ZabrzeLocation

Historic Weather in Zabrze — Graph

°F

Zabrze temperature yesterday

Maximum temperature yesterday: 41 °F (at 2:30 PM)
Minimum temperature yesterday: 32 °F (at 5:30 AM)
Average temperature yesterday: 35 °F

Past Weeks' High & Low Weather Summary

 TemperatureHumidityPressure
High52 °F (Feb 23, 3:00 PM)100% (Feb 22, 2:30 AM)30.69 "Hg (Feb 22, 2:30 AM)
Low23 °F (Feb 17, 10:00 PM)29% (Feb 21, 1:00 PM)29.50 "Hg (Mar 2, 11:30 AM)
Average38 °F80%29.96 "Hg
* Reported Feb 17 7:00 PM — Mar 4 7:30 PM, Zabrze, Weather by CustomWeather, © 2015

Note: Actual official high and low records may vary slightly from our data, if they occured in-between our weather recording intervals... More about our weather records

Advertising

Zabrze weather history for previous 24 hours

 ConditionsComfort  
Time TempWeatherWind HumidityBarometerVisibility
7:30 PM
Wed, Mar 4
32 °FClear.3 mph75%30.21 "Hg4 mi
7:00 PM32 °FPassing clouds.3 mph87%30.18 "HgN/A
6:30 PM34 °FClear.No wind81%30.18 "Hg10 mi
6:00 PM37 °FPassing clouds.3 mph65%30.18 "HgN/A
5:30 PM36 °FPassing clouds.9 mph75%30.18 "HgN/A
5:00 PM37 °FPassing clouds.9 mph70%30.15 "HgN/A
4:30 PM37 °FScattered clouds.8 mph70%30.15 "HgN/A
4:00 PM39 °FPassing clouds.10 mph70%30.15 "HgN/A
3:30 PM37 °FSprinkles. Scattered clouds.17 mph81%30.15 "HgN/A
3:00 PM37 °FScattered clouds.15 mph75%30.12 "HgN/A
2:30 PM41 °FScattered clouds.21 mph61%30.12 "HgN/A
2:00 PM41 °FScattered clouds.20 mph57%30.12 "HgN/A
1:30 PM39 °FSnow flurries. Broken clouds.18 mph56%30.12 "HgN/A
1:00 PM39 °FScattered clouds.21 mph56%30.12 "HgN/A
12:30 PM39 °FScattered clouds.21 mph61%30.09 "HgN/A
12:00 PM41 °FScattered clouds.24 mph61%30.09 "HgN/A
11:30 AM39 °FScattered clouds.22 mph70%30.09 "HgN/A
11:00 AM37 °FPassing clouds.21 mph81%30.07 "HgN/A
10:30 AM37 °FPartly sunny.21 mph81%30.07 "HgN/A
10:00 AM36 °FPartly sunny.15 mph93%30.07 "HgN/A
9:30 AM34 °FPartly sunny.10 mph100%30.07 "HgN/A
9:00 AM34 °FLight rain. Broken clouds.9 mph93%30.04 "HgN/A
8:30 AM34 °FSnow flurries. Broken clouds.12 mph93%30.04 "Hg1 mi
8:00 AM36 °FLight rain. Partly sunny.8 mph87%30.01 "HgN/A
7:30 AM36 °FLight rain. Partly sunny.12 mph87%30.01 "HgN/A
7:00 AM36 °FSprinkles. Partly sunny.12 mph87%30.01 "HgN/A
6:30 AM37 °FSnow flurries. Broken clouds.20 mph75%29.98 "HgN/A
6:00 AM39 °FPassing clouds.12 mph61%29.98 "HgN/A
5:30 AM39 °FPassing clouds.10 mph56%29.98 "HgN/A
5:00 AM39 °FPassing clouds.9 mph56%29.98 "HgN/A
4:30 AM39 °FPassing clouds.9 mph61%29.98 "HgN/A
4:00 AM39 °FPassing clouds.8 mph61%29.98 "HgN/A
3:30 AM39 °FLight rain. Passing clouds.15 mph65%30.01 "HgN/A
3:00 AM39 °FClear.9 mph56%30.04 "Hg10 mi
2:30 AM39 °FClear.12 mph56%30.04 "Hg10 mi
2:00 AM37 °FPassing clouds.9 mph60%30.04 "HgN/A
1:30 AM36 °FClear.8 mph65%30.04 "Hg10 mi
1:00 AM36 °FClear.6 mph65%30.04 "Hg4 mi
12:30 AM36 °FClear.7 mph65%30.07 "Hg4 mi
12:00 AM36 °FClear.7 mph65%30.07 "Hg4 mi
11:30 PM
Tue, Mar 3
34 °FClear.7 mph65%30.07 "Hg4 mi
11:00 PM34 °FClear.8 mph65%30.09 "Hg4 mi
10:30 PM36 °FClear.7 mph65%30.09 "Hg4 mi
10:00 PM36 °FClear.6 mph65%30.09 "Hg4 mi
9:30 PM36 °FClear.3 mph70%30.09 "Hg5 mi
9:00 PM34 °FPassing clouds.5 mph81%30.09 "HgN/A
8:30 PM34 °FClear.6 mph81%30.09 "Hg10 mi
8:00 PM34 °FClear.6 mph81%30.09 "Hg10 mi
Weather by CustomWeather, © 2015

See weather overviewHow to use our weather pages